Weather History for College Station, TX

Change the Weather History Date:

Sunday, December 16, 2012

  Actual Average Record
Temperature  
Mean Temperature 60 °F 52 °F  
Max Temperature 68 °F 62 °F 82 °F (1924)
Min Temperature 51 °F 42 °F 13 °F (1989)
Degree Days  
Heating Degree Days 5 14  
Month to date heating degree days 90 196  
Since 1 July heating degree days 274 421  
Cooling Degree Days 0 0  
Month to date cooling degree days 48 13  
Year to date cooling degree days 3607 3086  
Growing Degree Days 9 (Base 50)    
Moisture  
Dew Point 58 °F    
Average Humidity 85    
Maximum Humidity 96    
Minimum Humidity 73    
Precipitation  
Precipitation 1.24 in 0.11 in 1.24 in (2012)
Month to date precipitation 3.18 1.67  
Year to date precipitation 40.63 38.50  
Sea Level Pressure  
Sea Level Pressure 29.82 in    
Wind  
Wind Speed 3 mph (WNW)    
Max Wind Speed 32 mph    
Max Gust Speed 40 mph    
Visibility 9 miles    
Events Rain , Thunderstorm    
T = Trace of Precipitation, MM = Missing Value Source: NWS Daily Summary

Daily Weather History Graph

Daily Weather History Graph

Search for Another Location

Airport:

Trip Planner

Search our weather history database for the weather conditions in past years. The results will help you decide how hot, cold, wet, or windy it might be!

Date:

Astronomy

Dec. 16, 2012 Rise Set
Actual Time 7:16 AM CST 5:26 PM CST
Civil Twilight 6:49 AM CST 5:53 PM CST
Nautical Twilight 6:19 AM CST 6:23 PM CST
Astronomical Twilight 5:50 AM CST 6:52 PM CST
Moon 10:01 AM CST (12/16) 9:28 PM CST (12/16)
Length of Visible Light 11h 03m
Length of Day
10h 10m
Waxing Crescent, 16% of the Moon is Illuminated
Dec 16
Waxing Crescent
Dec 19
First Quarter
Dec 28
Full
Jan 4
Last Quarter
Jan 11
New

Hourly Weather History & Observations

Time (CST) Temp. Dew Point Humidity Pressure Visibility Wind Dir Wind Speed Gust Speed Precip Events Conditions
12:02 AM 62.6 °F 55.4 °F 77% 29.85 in 10.0 mi Calm Calm - N/A   Mostly Cloudy
12:15 AM 64.4 °F 57.2 °F 77% 29.84 in 10.0 mi Calm Calm - N/A   Mostly Cloudy
12:50 AM 64.4 °F 57.2 °F 77% 29.85 in 10.0 mi Calm Calm - N/A   Overcast
12:53 AM 64.0 °F 57.0 °F 78% 29.84 in 10.0 mi Calm Calm - N/A   Overcast
1:00 AM 64.4 °F 57.2 °F 77% 29.84 in 10.0 mi Calm Calm - N/A   Overcast
1:27 AM 64.4 °F 55.4 °F 73% 29.84 in 10.0 mi Calm Calm - N/A   Mostly Cloudy
1:33 AM 64.4 °F 57.2 °F 77% 29.84 in 10.0 mi Calm Calm - N/A   Mostly Cloudy
1:37 AM 64.4 °F 57.2 °F 77% 29.84 in 10.0 mi Calm Calm - N/A   Mostly Cloudy
1:53 AM 64.9 °F 57.9 °F 78% 29.82 in 10.0 mi Calm Calm - N/A   Overcast
2:00 AM 64.4 °F 57.2 °F 77% 29.83 in 10.0 mi Calm Calm - N/A   Overcast
2:07 AM 64.4 °F 57.2 °F 77% 29.83 in 10.0 mi Calm Calm - N/A   Overcast
2:18 AM 64.4 °F 57.2 °F 77% 29.83 in 10.0 mi ESE 3.5 mph - N/A   Overcast
2:31 AM 64.4 °F 57.2 °F 77% 29.82 in 10.0 mi ESE 5.8 mph - N/A   Mostly Cloudy
2:42 AM 64.4 °F 57.2 °F 77% 29.79 in 10.0 mi East 5.8 mph - N/A   Mostly Cloudy
2:53 AM 64.9 °F 59.0 °F 81% 29.77 in 10.0 mi East 5.8 mph - N/A   Mostly Cloudy
3:13 AM 66.2 °F 60.8 °F 83% 29.79 in 10.0 mi Calm Calm - N/A   Overcast
3:53 AM 66.0 °F 61.0 °F 84% 29.80 in 10.0 mi Calm Calm - N/A   Overcast
4:18 AM 64.4 °F 62.6 °F 94% 29.82 in 10.0 mi WNW 3.5 mph - N/A   Mostly Cloudy
4:33 AM 66.2 °F 64.4 °F 94% 29.83 in 10.0 mi NW 5.8 mph - N/A   Mostly Cloudy
4:50 AM 66.2 °F 64.4 °F 94% 29.82 in 10.0 mi WNW 3.5 mph - N/A   Overcast
4:53 AM 66.9 °F 64.0 °F 90% 29.81 in 10.0 mi NW 3.5 mph - N/A   Overcast
5:38 AM 66.2 °F 62.6 °F 88% 29.81 in 10.0 mi SSE 5.8 mph - N/A   Overcast
5:53 AM 66.0 °F 63.0 °F 90% 29.80 in 9.0 mi West 3.5 mph - N/A Thunderstorm Mostly Cloudy
6:01 AM 66.2 °F 62.6 °F 88% 29.80 in 10.0 mi NW 3.5 mph - N/A Thunderstorm Overcast
6:13 AM 62.6 °F 59.0 °F 88% 29.81 in 0.8 mi WNW 32.2 mph 40.3 mph 0.54 in Rain , Thunderstorm Heavy Thunderstorms and Rain
6:24 AM 62.6 °F 59.0 °F 88% 29.84 in 1.0 mi NW 11.5 mph 17.3 mph 0.95 in Rain , Thunderstorm Heavy Thunderstorms and Rain
6:29 AM 64.4 °F 59.0 °F 83% 29.84 in 2.0 mi Variable 6.9 mph 17.3 mph 1.05 in Rain , Thunderstorm Heavy Thunderstorms and Rain
6:46 AM 62.6 °F 60.8 °F 94% 29.86 in 5.0 mi West 10.4 mph - N/A Rain , Thunderstorm Light Rain
6:53 AM 62.6 °F 60.8 °F 94% 29.86 in 10.0 mi West 12.7 mph - N/A Rain , Thunderstorm Light Rain
7:07 AM 62.6 °F 60.8 °F 94% 29.85 in 10.0 mi West 8.1 mph - 0.00 in Rain Light Rain
7:53 AM 62.1 °F 61.0 °F 96% 29.82 in 9.0 mi East 3.5 mph - 0.05 in Rain Light Rain
8:53 AM 63.0 °F 61.0 °F 93% 29.84 in 10.0 mi SE 5.8 mph - 0.00 in   Overcast
9:53 AM 64.9 °F 63.0 °F 93% 29.81 in 10.0 mi West 8.1 mph - 0.00 in   Mostly Cloudy
10:02 AM 62.6 °F 60.8 °F 94% 29.85 in 10.0 mi WNW 15.0 mph 27.6 mph 0.01 in   Mostly Cloudy
10:08 AM 64.4 °F 60.8 °F 88% 29.86 in 10.0 mi WNW 13.8 mph - 0.01 in   Mostly Cloudy
10:15 AM 64.4 °F 60.8 °F 88% 29.85 in 10.0 mi WNW 9.2 mph 19.6 mph 0.01 in   Mostly Cloudy
10:48 AM 64.4 °F 59.0 °F 83% 29.82 in 10.0 mi Calm Calm - 0.01 in   Partly Cloudy
10:53 AM 64.0 °F 59.0 °F 84% 29.81 in 10.0 mi Calm Calm - 0.01 in   Partly Cloudy
11:53 AM 64.0 °F 59.0 °F 84% 29.78 in 10.0 mi NW 6.9 mph - N/A   Clear
12:53 PM 64.0 °F 59.0 °F 84% 29.78 in 10.0 mi SW 3.5 mph - N/A   Clear
1:53 PM 64.9 °F 57.9 °F 78% 29.76 in 10.0 mi WSW 4.6 mph - N/A   Clear
2:53 PM 64.0 °F 55.9 °F 75% 29.76 in 10.0 mi West 5.8 mph - N/A   Clear
3:53 PM 64.0 °F 55.0 °F 73% 29.76 in 10.0 mi Calm Calm - N/A   Clear
4:53 PM 63.0 °F 55.9 °F 78% 29.77 in 10.0 mi Calm Calm - N/A   Clear
5:53 PM 59.0 °F 57.0 °F 93% 29.77 in 10.0 mi Calm Calm - N/A   Clear
6:53 PM 57.9 °F 54.0 °F 87% 29.76 in 10.0 mi Calm Calm - N/A   Clear
7:53 PM 55.9 °F 52.0 °F 87% 29.79 in 10.0 mi Calm Calm - N/A   Clear
8:53 PM 54.0 °F 52.0 °F 93% 29.81 in 10.0 mi Calm Calm - N/A   Clear
9:53 PM 54.0 °F 52.0 °F 93% 29.82 in 10.0 mi Calm Calm - N/A   Clear
10:53 PM 52.0 °F 50.0 °F 93% 29.83 in 10.0 mi Calm Calm - N/A   Clear
11:53 PM 51.1 °F 50.0 °F 96% 29.85 in 10.0 mi Calm Calm - N/A   Clear